STARLINK BH

Last updated on Jan. 16, 2020, 12:02 a.m. UTC

1 44969U 20001BH  20015.58334491 -.00000982  00000-0 -11930-5 0  9990
2 44969  53.0004 354.7548 0003820 268.8279 158.0715 15.82640768  1350

Satellite is not in orbit.